sat.trackr.live / text

‹ back to catalog

IRIDIUM 116

NORAD 43072 · 2017-083C

PAYLOAD ACTIVE UNKNOWN

§ Identity

Operator
Country
US
Launch date
2017-12-23
Launch site
AFWTR
Launch vehicle
Mass (kg)
RCS (m²)

Purposes: comms

External: N2YO · Heavens-Above · Gunter

§ Orbital elements

Epoch: 2026-05-25T01:14:39.134112Z

Period
100.40 min
Inclination
86.3951°
Eccentricity
0.0001768
Mean motion
14.34217826 rev/d
Perigee alt
776.4 km
Apogee alt
778.9 km
Semi-major
7,155.8 km
B*
-1.6829e-5
RAAN
331.6782°
Arg perigee
83.1747°
Mean anomaly
276.9650°
Rev number
44,085

§ Raw data

IRIDIUM 1161 43072U 17083C   26145.05184183 -.00000027  00000+0 -16829-4 0  99932 43072  86.3951 331.6782 0001768  83.1747 276.9650 14.34217826440856

JSON: /api/v1/satellites/43072 · /tle

For live sub-satellite position, see the globe view (requires WebGL).

§ Visibility from observer

Set your observer location to see the next 7 days of passes ≥ 10°. The values pass through the URL so the page stays shareable.

No JS? Fill the form by hand. The geolocation button needs JavaScript.

§ Radio — SatNOGS DB

ModeDescriptionDownlinkUplink
FM Iridium 116 1.624 GHz

1 transmitter · refreshed weekly from db.satnogs.org